[[{"header":{"parameterUnit":"m.s-1","parameterCategory":2,"la1":30.2991,"la2":30.254,"lo1":-89.0895,"lo2":-89.0444,"dy":0.0017,"dx":0.0017,"nx":28,"ny":28,"refTime":"2024-03-12T03:00:00:Z","depth":"0","parameterNumber":2,"parameterNumberName":"U-component_of_CURRENTS"},"data":[0,0,0,0,0,0,0,0,0,0,0,0,0,0,0,0,0,0,0,0,0,0,0,0,0,0,0,0,0,0,0,0,0,0,0,0,0,0,0,0,0,0,0,0,0,0,0,0,0,0,0,0,0,0,0,0,0,0,-0.2548,-0.255,0,-0.2652,-0.2653,-0.2654,-0.2643,-0.2642,-0.264,-0.2639,-0.2635,-0.2636,-0.2638,0,0,0,0,0,0,0,0,0,0,0,0,0,-0.2347,-0.235,-0.2548,-0.255,-0.2551,-0.2651,-0.2653,-0.2654,-0.2644,-0.2642,-0.264,-0.2638,-0.2635,-0.2636,-0.2638,0,0,0,0,0,0,0,0,0,0,0,0,0,-0.2439,-0.2351,-0.2548,-0.2559,-0.2561,-0.2651,-0.2653,-0.2654,-0.2644,-0.2642,-0.2639,-0.2637,-0.2634,-0.2636,-0.2638,-0.2694,0,0,-0.2644,-0.2645,0,0,0,0,0,0,0,0,-0.2434,-0.2446,-0.2556,-0.2558,-0.2561,-0.2634,-0.258,-0.2663,-0.2644,-0.2611,-0.2639,-0.2636,-0.2627,-0.263,-0.2653,-0.2694,-0.2694,-0.2644,-0.2645,-0.2646,-0.2646,0,0,0,0,0,0,0,-0.2427,-0.2442,-0.2588,-0.2558,-0.2561,-0.2561,-0.2571,-0.2596,-0.2627,-0.2614,-0.2614,-0.2628,-0.2627,-0.2652,-0.2653,-0.2694,-0.2644,-0.2646,-0.2647,-0.2648,-0.2767,-0.2769,0,0,0,0,0,0,-0.2421,-0.2437,-0.2584,-0.2591,-0.2492,-0.2566,-0.2578,-0.2611,-0.2629,-0.2631,-0.263,-0.2627,-0.265,-0.2651,-0.2653,-0.2727,-0.2646,-0.2648,-0.2649,-0.2765,-0.2767,-0.2769,0,0,0,0,0,0,-0.2416,-0.2434,-0.258,-0.2515,-0.2534,-0.2572,-0.261,-0.2615,-0.2635,-0.2643,-0.2642,-0.2645,-0.2648,-0.265,-0.2688,-0.2725,-0.2649,-0.265,-0.2762,-0.2765,-0.2768,-0.287,0,0,0,0,0,0,-0.2411,-0.2432,-0.2452,-0.2516,-0.2538,-0.2654,-0.2612,-0.2618,-0.2649,-0.2646,-0.2656,-0.2654,-0.2646,-0.2686,-0.269,-0.2727,-0.2652,-0.276,-0.2764,-0.2767,-0.2864,-0.2876,-0.2886,0,0,0,0,0,-0.2403,-0.2449,-0.2453,-0.2471,-0.2566,-0.2657,-0.2669,-0.2685,-0.2651,-0.2689,-0.2685,-0.2653,-0.2712,-0.269,-0.2694,-0.2732,-0.2758,-0.2763,-0.2767,-0.2859,-0.2873,-0.2886,0,0,0,0,0,0,-0.236,-0.2455,-0.246,-0.2527,-0.2593,-0.2656,-0.2685,-0.2692,-0.2722,-0.2705,-0.269,-0.2691,-0.2736,-0.2724,-0.27,-0.2776,-0.2726,-0.2731,-0.2794,-0.2808,-0.2819,-0.2812,-0.2653,0,0,0,0,0,-0.2365,-0.2427,-0.2507,-0.2558,-0.2591,-0.2636,-0.2668,-0.2689,-0.2724,-0.2734,-0.2742,-0.2744,-0.2764,-0.2775,-0.2794,-0.2845,-0.2822,-0.2868,-0.2879,-0.2889,-0.2887,-0.2886,-0.2897,-0.2784,-0.2784,-0.2784,0,0,-0.2357,-0.2418,-0.2448,-0.2553,-0.2595,-0.2677,-0.265,-0.2716,-0.2777,-0.2729,-0.2796,-0.2788,-0.2786,-0.2842,-0.286,-0.2834,-0.2915,-0.2894,-0.2903,-0.2895,-0.2892,-0.2903,-0.2912,-0.2787,-0.2787,-0.2786,0,0,-0.2377,-0.2432,-0.2488,-0.2565,-0.265,-0.27,-0.2721,-0.2797,-0.2821,-0.289,-0.2864,-0.2877,-0.2918,-0.2928,-0.2933,-0.3017,-0.2974,-0.3021,-0.3076,-0.3077,-0.3085,-0.3093,-0.3101,-0.3108,-0.3027,-0.3027,-0.3027,0,-0.2362,-0.2442,-0.2516,-0.2601,-0.2657,-0.2714,-0.2784,-0.2851,-0.2927,-0.2945,-0.2919,-0.2964,-0.2959,-0.3015,-0.304,-0.3043,-0.3034,-0.3026,-0.309,-0.3097,-0.3102,-0.3109,-0.3115,-0.3032,-0.3032,-0.3031,-0.3031,0,-0.2427,-0.2499,-0.2543,-0.2671,-0.2753,-0.2826,-0.2932,-0.3001,-0.3017,-0.3056,-0.3105,-0.3104,-0.3114,-0.3126,-0.3108,-0.3157,-0.3137,-0.3104,-0.3054,-0.312,-0.3123,-0.3128,-0.304,-0.3038,-0.3037,-0.3035,0,0,-0.2382,-0.2548,-0.2566,-0.2614,-0.279,-0.2853,-0.2988,-0.3095,-0.3139,-0.3204,-0.3241,-0.328,-0.3247,-0.325,-0.3232,-0.3237,-0.3275,-0.3191,-0.3188,-0.3195,-0.3285,-0.3025,-0.3005,-0.3251,-0.3252,-0.3253,-0.3279,0,-0.2398,-0.2518,-0.2622,-0.2745,-0.2811,-0.2936,-0.3047,-0.3159,-0.3224,-0.329,-0.3304,-0.3325,-0.3309,-0.3287,-0.3306,-0.3274,-0.3289,-0.3271,-0.3222,-0.3221,-0.2977,-0.3001,-0.2788,-0.2769,-0.3283,-0.3284,-0.3284,0,-0.2444,-0.2503,-0.2597,-0.2747,-0.2787,-0.2872,-0.3021,-0.3124,-0.3264,-0.3305,-0.3359,-0.3374,-0.3416,-0.3362,-0.3383,-0.3372,-0.3338,-0.3314,-0.3313,-0.303,-0.2967,-0.2781,-0.2758,-0.2748,-0.3291,-0.3291,-0.329,0,-0.2353,-0.2509,-0.2555,-0.2615,-0.2789,-0.2838,-0.2928,-0.3093,-0.3141,-0.3286,-0.3286,-0.3405,-0.3355,-0.3409,-0.3353,-0.338,-0.3334,-0.3364,-0.3116,-0.31,-0.2882,-0.2841,-0.2828,-0.3366,-0.3366,-0.3366,-0.3366,0,-0.2358,-0.2403,-0.2494,-0.2518,-0.2575,-0.2729,-0.2791,-0.2927,-0.3038,-0.3035,-0.3229,-0.319,-0.3345,-0.3336,-0.3371,-0.3219,-0.3347,-0.3115,-0.3074,-0.2911,-0.2874,-0.2821,-0.286,-0.3367,-0.3367,-0.3367,-0.3366,0,-0.2286,-0.2359,-0.2402,-0.2503,-0.2532,-0.2564,-0.2676,-0.2708,-0.2833,-0.2829,-0.2852,-0.2998,-0.2961,-0.3087,-0.3119,-0.3119,-0.3,-0.3001,-0.2792,-0.2721,-0.2466,-0.2518,-0.2414,-0.2362,-0.2783,-0.2776,-0.2771,0,-0.2261,-0.2256,-0.2324,-0.2331,-0.2365,-0.2412,-0.2439,-0.2591,-0.258,-0.2641,-0.2581,-0.2598,-0.254,-0.2545,-0.2559,-0.2595,-0.2668,-0.2431,-0.2423,-0.2394,-0.2428,-0.2484,-0.2458,-0.2225,-0.2216,-0.2208,-0.2202,0,-0.2154,-0.2164,-0.2179,-0.2179,-0.2189,-0.222,-0.2224,-0.2188,-0.2283,-0.2258,-0.2166,-0.2139,-0.2068,-0.1983,-0.2013,-0.2031,-0.2323,-0.226,-0.2305,-0.2022,-0.2014,-0.196,-0.2302,-0.2132,-0.2139,-0.2144,-0.2148,-0.2151,-0.2034,-0.2014,-0.2008,-0.2011,-0.2033,-0.1999,-0.1949,-0.191,-0.1848,-0.1752,-0.1761,-0.1659,-0.1603,-0.157,-0.1579,-0.1523,-0.1695,-0.1566,-0.1652,-0.173,-0.1588,-0.1738,-0.145,-0.1453,-0.1455,-0.1458,-0.146,0,-0.1874,-0.1857,-0.1839,-0.1838,-0.1803,-0.1868,-0.1784,-0.1681,-0.151,-0.1443,-0.133,-0.1205,-0.1078,-0.1113,-0.104,-0.101,-0.1087,-0.1056,-0.1171,-0.1193,-0.1376,-0.1253,-0.0813,-0.0813,-0.0813,-0.0813,-0.0813,-0.0813,-0.1778,-0.171,-0.1701,-0.1603,-0.1595,-0.1483,-0.1405,-0.1269,-0.1179,-0.0975,-0.09,-0.0859,-0.0866,-0.0886,-0.0824,-0.0798,-0.0902,-0.078,-0.0952,-0.116,-0.1219,-0.1276,-0.117,-0.072,-0.072,-0.0692,-0.0692,-0.0692]},{"header":{"parameterUnit":"m.s-1","parameterCategory":2,"la1":30.2991,"la2":30.254,"lo1":-89.0895,"lo2":-89.0444,"dy":0.0017,"dx":0.0017,"nx":28,"ny":28,"refTime":"2024-03-12T03:00:00:Z","depth":"0","parameterNumber":3,"parameterNumberName":"V-component_of_CURRENTS"},"data":[0,0,0,0,0,0,0,0,0,0,0,0,0,0,0,0,0,0,0,0,0,0,0,0,0,0,0,0,0,0,0,0,0,0,0,0,0,0,0,0,0,0,0,0,0,0,0,0,0,0,0,0,0,0,0,0,0,0,0.0014,0.0015,0,0.0109,0.0111,0.0113,0.0167,0.0167,0.0166,0.0166,0.0235,0.0237,0.0239,0,0,0,0,0,0,0,0,0,0,0,0,0,0.0019,0.0018,0.0014,0.0015,0.0015,0.0109,0.0111,0.0113,0.0167,0.0166,0.0166,0.0165,0.0234,0.0237,0.0239,0,0,0,0,0,0,0,0,0,0,0,0,0,0.0062,0.0018,0.0014,0.0048,0.0051,0.0109,0.0111,0.0114,0.0167,0.0166,0.0166,0.0165,0.0233,0.0236,0.024,0.0276,0,0,0.025,0.0252,0,0,0,0,0,0,0,0,0.006,0.0063,0.0042,0.0045,0.0049,0.0119,0.0138,0.0164,0.0167,0.0131,0.0166,0.0165,0.0189,0.0196,0.0227,0.028,0.0283,0.0251,0.0253,0.0254,0.0255,0,0,0,0,0,0,0,0.0057,0.006,0.006,0.0043,0.0047,0.0106,0.0111,0.0145,0.0169,0.0134,0.0137,0.0135,0.0192,0.0224,0.0229,0.0284,0.0251,0.0254,0.0256,0.0257,0.0362,0.0363,0,0,0,0,0,0,0.0023,0.0056,0.0056,0.0062,0.0044,0.0105,0.0111,0.0104,0.0169,0.0176,0.0136,0.0137,0.0218,0.0225,0.0231,0.0277,0.0254,0.0258,0.026,0.0361,0.0362,0.0363,0,0,0,0,0,0,0.0023,0.0022,0.0052,0.0056,0.0063,0.0104,0.0096,0.0106,0.013,0.0169,0.0177,0.0148,0.0218,0.0226,0.0278,0.028,0.0259,0.0262,0.0361,0.0362,0.0363,0.0369,0,0,0,0,0,0,0.0022,0.0021,0.0014,0.0053,0.0061,0.0083,0.0097,0.0108,0.0127,0.013,0.0182,0.0189,0.0218,0.0273,0.0281,0.0284,0.0265,0.036,0.0361,0.0362,0.0368,0.037,0.0372,0,0,0,0,0,0.0022,0.0011,0.0013,0.0013,0.0046,0.0083,0.0094,0.0127,0.0128,0.0146,0.019,0.0187,0.0286,0.0277,0.0287,0.0291,0.0359,0.0361,0.0362,0.0367,0.037,0.0372,0,0,0,0,0,0,0.0007,0.0016,0.0019,0.0009,0.004,0.0089,0.0099,0.0122,0.0174,0.017,0.0212,0.0223,0.0266,0.028,0.0269,0.0324,0.0315,0.0319,0.0315,0.0318,0.032,0.0306,0.0268,0,0,0,0,0,-0.0003,-0.0009,0.0015,0.0008,0.0016,0.0057,0.0076,0.0097,0.0139,0.0161,0.0205,0.0243,0.0283,0.0301,0.034,0.0377,0.0387,0.038,0.0382,0.0384,0.0379,0.0397,0.04,0.0368,0.0368,0.0368,0,0,-0.0014,-0.001,-0.0014,0.0005,0.0027,0.0049,0.0069,0.0087,0.0118,0.0158,0.0219,0.0256,0.0296,0.0344,0.0361,0.0353,0.0404,0.0386,0.0387,0.0381,0.0399,0.0402,0.0405,0.0369,0.0369,0.0369,0,0,-0.0041,-0.0035,-0.005,-0.0024,-0.0002,0.0036,0.0035,0.0087,0.012,0.0177,0.0214,0.026,0.032,0.0361,0.0383,0.0418,0.0418,0.0416,0.0414,0.0433,0.0435,0.0438,0.0478,0.0483,0.0413,0.0413,0.0413,0,-0.0056,-0.0072,-0.0044,-0.0042,-0.0028,0.0023,0.0025,0.008,0.0151,0.018,0.0188,0.0293,0.0329,0.0387,0.0404,0.0422,0.0435,0.0402,0.0435,0.0437,0.0439,0.048,0.0486,0.0414,0.0414,0.0414,0.0414,0,-0.0085,-0.0094,-0.0098,-0.0078,-0.0046,-0.0038,0.0027,0.0077,0.0118,0.0169,0.0236,0.0302,0.0356,0.0376,0.0404,0.044,0.0447,0.0438,0.0425,0.0443,0.0485,0.0491,0.0414,0.0414,0.0414,0.0414,0,0,-0.0131,-0.0127,-0.0126,-0.0137,-0.0071,-0.0058,0.0012,0.0077,0.0108,0.0191,0.0231,0.032,0.0349,0.0376,0.0416,0.0441,0.0485,0.0442,0.0443,0.0477,0.0538,0.053,0.0536,0.0473,0.0473,0.0474,0.057,0,-0.0167,-0.0194,-0.0164,-0.0168,-0.0174,-0.0097,-0.004,0.0034,0.0109,0.0175,0.0252,0.0302,0.0351,0.0365,0.0407,0.0464,0.0497,0.0461,0.052,0.0523,0.0508,0.0541,0.0522,0.0603,0.0576,0.0577,0.0578,0,-0.0189,-0.0215,-0.0236,-0.0233,-0.0229,-0.0207,-0.0125,-0.0075,0.0051,0.0105,0.0187,0.0253,0.0339,0.0348,0.0468,0.0439,0.0487,0.0529,0.0533,0.0521,0.0524,0.0577,0.0615,0.0715,0.0587,0.0587,0.0586,0,-0.0214,-0.0255,-0.0284,-0.0277,-0.0252,-0.0242,-0.0217,-0.01,-0.0066,0.0053,0.0085,0.0212,0.0251,0.0342,0.0465,0.0455,0.0579,0.0572,0.0619,0.062,0.0614,0.0612,0.0746,0.0633,0.0633,0.0633,0.0632,0,-0.022,-0.0239,-0.0318,-0.0317,-0.0371,-0.0321,-0.0316,-0.0249,-0.0165,-0.0128,0.0021,0.0066,0.0241,0.0349,0.0455,0.0572,0.0577,0.0628,0.064,0.0618,0.0616,0.0708,0.0743,0.0636,0.0635,0.0635,0.0634,0,-0.0171,-0.0217,-0.0282,-0.0341,-0.0372,-0.0404,-0.0414,-0.0395,-0.0307,-0.0254,-0.0226,-0.0049,0.0093,0.0283,0.0441,0.0539,0.0704,0.0691,0.0671,0.0678,0.0789,0.0823,0.0926,0.097,0.0753,0.0754,0.0754,0,-0.0123,-0.0154,-0.0316,-0.0393,-0.0421,-0.0482,-0.0503,-0.0461,-0.044,-0.0328,-0.0309,-0.0157,-0.0031,0.0232,0.0428,0.0635,0.0711,0.0732,0.0701,0.0803,0.0851,0.0861,0.0892,0.0717,0.0717,0.0717,0.0717,0,-0.0055,-0.0136,-0.022,-0.0396,-0.0486,-0.057,-0.0609,-0.062,-0.0549,-0.0493,-0.0399,-0.0301,-0.0052,0.0188,0.0459,0.0567,0.0776,0.0732,0.0842,0.0837,0.0852,0.0897,0.0667,0.0716,0.0716,0.0716,0.0716,0.0716,-0.0026,-0.0108,-0.0264,-0.0417,-0.0534,-0.0627,-0.0658,-0.0676,-0.0659,-0.0546,-0.0473,-0.0256,0.004,0.0405,0.053,0.0782,0.0753,0.0855,0.0894,0.09,0.0919,0.0693,0.0743,0.0743,0.0743,0.0743,0.0743,0,-0.0019,-0.0126,-0.0267,-0.0465,-0.0574,-0.063,-0.0699,-0.0699,-0.0675,-0.0534,-0.0421,0.0009,0.0263,0.0554,0.0861,0.0972,0.0989,0.1032,0.106,0.1088,0.0901,0.0876,0.0949,0.0949,0.0949,0.0949,0.0949,0.0949,-0.003,-0.0164,-0.0259,-0.046,-0.0571,-0.0654,-0.0682,-0.0677,-0.0585,-0.0323,-0.0016,0.0236,0.0633,0.0937,0.1178,0.119,0.1301,0.125,0.1338,0.123,0.1217,0.1205,0.1192,0.1331,0.1332,0.1498,0.15,0.1502]}],[{"header":{"parameterUnit":"m.s-1","parameterCategory":2,"la1":30.2991,"la2":30.254,"lo1":-89.0895,"lo2":-89.0444,"dy":0.0017,"dx":0.0017,"nx":28,"ny":28,"refTime":"2024-03-12T03:00:00:Z","depth":"2","parameterNumber":2,"parameterNumberName":"U-component_of_CURRENTS"},"data":[0,0,0,0,0,0,0,0,0,0,0,0,0,0,0,0,0,0,0,0,0,0,0,0,0,0,0,0,0,0,0,0,0,0,0,0,0,0,0,0,0,0,0,0,0,0,0,0,0,0,0,0,0,0,0,0,0,0,-0.1807,-0.1808,0,-0.1763,-0.1762,-0.1761,-0.1688,-0.1687,-0.1687,-0.1687,-0.1536,-0.1532,-0.1529,0,0,0,0,0,0,0,0,0,0,0,0,0,-0.1697,-0.1699,-0.1807,-0.1808,-0.1808,-0.1764,-0.1762,-0.176,-0.1688,-0.1687,-0.1687,-0.1687,-0.1537,-0.1533,-0.1528,0,0,0,0,0,0,0,0,0,0,0,0,0,-0.1697,-0.17,-0.1807,-0.1776,-0.1773,-0.1764,-0.1762,-0.176,-0.1688,-0.1687,-0.1687,-0.1687,-0.1539,-0.1533,-0.1528,-0.1501,0,0,-0.1511,-0.1508,0,0,0,0,0,0,0,0,-0.1697,-0.17,-0.178,-0.1778,-0.1775,-0.1741,-0.1668,-0.1672,-0.1688,-0.1708,-0.1687,-0.1686,-0.1603,-0.1592,-0.1569,-0.1494,-0.1487,-0.151,-0.1507,-0.1504,-0.1503,0,0,0,0,0,0,0,-0.1697,-0.1701,-0.1778,-0.1781,-0.1778,-0.1719,-0.1719,-0.1667,-0.1647,-0.1706,-0.1703,-0.1718,-0.1599,-0.1575,-0.1565,-0.1485,-0.151,-0.1505,-0.1502,-0.1499,-0.1445,-0.1446,0,0,0,0,0,0,-0.1735,-0.1702,-0.1779,-0.1778,-0.1748,-0.1723,-0.1722,-0.1743,-0.165,-0.1639,-0.1718,-0.1715,-0.1585,-0.1572,-0.1559,-0.1587,-0.1504,-0.1499,-0.1496,-0.1443,-0.1445,-0.1447,0,0,0,0,0,0,-0.1732,-0.1742,-0.1781,-0.1747,-0.175,-0.1728,-0.175,-0.1742,-0.1744,-0.1662,-0.1647,-0.1733,-0.1584,-0.1567,-0.1536,-0.1579,-0.1496,-0.1491,-0.144,-0.1443,-0.1446,-0.1601,0,0,0,0,0,0,-0.1729,-0.1742,-0.1742,-0.175,-0.1754,-0.1821,-0.1752,-0.1742,-0.1758,-0.1753,-0.167,-0.1654,-0.1582,-0.1545,-0.153,-0.1569,-0.1487,-0.1438,-0.1442,-0.1445,-0.1594,-0.1609,-0.1622,0,0,0,0,0,-0.1726,-0.1746,-0.1742,-0.1751,-0.1764,-0.1825,-0.1821,-0.1793,-0.176,-0.1786,-0.1712,-0.1657,-0.1558,-0.1541,-0.1524,-0.1562,-0.1436,-0.1441,-0.1445,-0.1587,-0.1606,-0.1622,0,0,0,0,0,0,-0.1695,-0.1743,-0.1738,-0.1769,-0.1816,-0.1818,-0.1833,-0.1818,-0.1779,-0.1771,-0.167,-0.1651,-0.1638,-0.1583,-0.1567,-0.1559,-0.1493,-0.1494,-0.1607,-0.1624,-0.1638,-0.1667,-0.1482,0,0,0,0,0,-0.1694,-0.1718,-0.1773,-0.1797,-0.1838,-0.1839,-0.1849,-0.1854,-0.1837,-0.182,-0.1759,-0.1694,-0.1639,-0.162,-0.1565,-0.1559,-0.1546,-0.1577,-0.1592,-0.1604,-0.1617,-0.1627,-0.1644,-0.1461,-0.1461,-0.1461,0,0,-0.1691,-0.1715,-0.1729,-0.1791,-0.1819,-0.1871,-0.1843,-0.1906,-0.1927,-0.1809,-0.18,-0.1739,-0.1647,-0.1636,-0.1628,-0.1599,-0.1659,-0.161,-0.1621,-0.1627,-0.1633,-0.1651,-0.1667,-0.1464,-0.1464,-0.1463,0,0,-0.1708,-0.1735,-0.177,-0.1817,-0.1892,-0.191,-0.1947,-0.1986,-0.1991,-0.1985,-0.1904,-0.1877,-0.1791,-0.1748,-0.1705,-0.1769,-0.173,-0.1761,-0.186,-0.1871,-0.1886,-0.1899,-0.1953,-0.1969,-0.1775,-0.1775,-0.1775,0,-0.1699,-0.1744,-0.1792,-0.1844,-0.1882,-0.194,-0.2,-0.2023,-0.2032,-0.2049,-0.2006,-0.1911,-0.1839,-0.1824,-0.1844,-0.1803,-0.1818,-0.1801,-0.1891,-0.1903,-0.1914,-0.1965,-0.1981,-0.1783,-0.1782,-0.1781,-0.1781,0,-0.174,-0.1783,-0.1827,-0.1899,-0.1949,-0.2028,-0.2095,-0.2134,-0.2138,-0.2155,-0.2164,-0.2073,-0.2015,-0.2003,-0.193,-0.1981,-0.1974,-0.1906,-0.1852,-0.1942,-0.199,-0.2005,-0.1795,-0.1792,-0.1789,-0.1787,0,0,-0.1724,-0.1832,-0.1846,-0.1878,-0.1992,-0.2038,-0.2115,-0.2205,-0.224,-0.2262,-0.2275,-0.2227,-0.2212,-0.2164,-0.2099,-0.2115,-0.2209,-0.2059,-0.2056,-0.2124,-0.2283,-0.2035,-0.2026,-0.2163,-0.2165,-0.2166,-0.2304,0,-0.1751,-0.1825,-0.1884,-0.1964,-0.2021,-0.21,-0.2153,-0.2235,-0.2284,-0.2314,-0.2312,-0.2295,-0.2269,-0.2227,-0.2256,-0.2191,-0.2246,-0.2181,-0.2176,-0.2177,-0.1951,-0.2032,-0.1858,-0.1942,-0.2318,-0.232,-0.2322,0,-0.1773,-0.1816,-0.1885,-0.1983,-0.2022,-0.2066,-0.2165,-0.2226,-0.2324,-0.2356,-0.2402,-0.2394,-0.2428,-0.2354,-0.2407,-0.2372,-0.2359,-0.2332,-0.2335,-0.2051,-0.195,-0.1901,-0.1952,-0.2344,-0.2342,-0.2341,-0.2339,0,-0.1696,-0.1823,-0.186,-0.1893,-0.2009,-0.2046,-0.2116,-0.2232,-0.2275,-0.2382,-0.2391,-0.2483,-0.2442,-0.2495,-0.244,-0.2448,-0.2462,-0.2453,-0.2251,-0.2237,-0.2055,-0.2016,-0.2511,-0.2511,-0.2511,-0.251,-0.251,0,-0.1664,-0.17,-0.1821,-0.1827,-0.1881,-0.1991,-0.2057,-0.2139,-0.223,-0.2254,-0.2395,-0.2366,-0.2467,-0.2469,-0.2485,-0.2385,-0.251,-0.2287,-0.2243,-0.2104,-0.2069,-0.2367,-0.2349,-0.2515,-0.2514,-0.2513,-0.2512,0,-0.1543,-0.1617,-0.1676,-0.1801,-0.183,-0.1862,-0.1981,-0.2016,-0.2141,-0.2151,-0.2173,-0.2285,-0.2283,-0.2356,-0.2385,-0.2363,-0.2334,-0.2264,-0.2102,-0.2032,-0.2133,-0.2121,-0.2143,-0.2135,-0.2128,-0.2123,-0.2118,0,-0.1484,-0.1496,-0.1623,-0.1623,-0.1667,-0.1738,-0.1767,-0.1926,-0.1954,-0.2051,-0.201,-0.2051,-0.2008,-0.2005,-0.1971,-0.199,-0.2106,-0.1842,-0.1791,-0.2134,-0.2091,-0.209,-0.2087,-0.168,-0.1672,-0.1666,-0.166,0,-0.1382,-0.1433,-0.1466,-0.1495,-0.1515,-0.154,-0.1599,-0.1615,-0.1756,-0.1772,-0.175,-0.1734,-0.1685,-0.1579,-0.1564,-0.1559,-0.1834,-0.17,-0.2117,-0.1729,-0.1687,-0.1647,-0.1663,-0.1603,-0.1608,-0.1613,-0.1616,-0.1618,-0.1319,-0.1323,-0.1379,-0.1392,-0.1373,-0.1345,-0.1343,-0.1394,-0.1408,-0.1426,-0.1446,-0.1376,-0.139,-0.1233,-0.1188,-0.1195,-0.1338,-0.1368,-0.1395,-0.1427,-0.1277,-0.1216,-0.1024,-0.1026,-0.1028,-0.103,-0.1032,0,-0.1316,-0.1299,-0.1277,-0.127,-0.1173,-0.1222,-0.1217,-0.1198,-0.117,-0.1161,-0.1121,-0.0968,-0.0865,-0.0904,-0.0789,-0.0782,-0.0872,-0.0789,-0.0923,-0.0976,-0.1025,-0.0862,-0.0496,-0.0495,-0.0494,-0.0493,0,0,-0.1304,-0.1297,-0.1289,-0.1117,-0.1047,-0.0925,-0.0902,-0.0882,-0.0869,-0.0808,-0.0756,-0.079,-0.0814,-0.0635,-0.0606,-0.0524,-0.0759,-0.0502,-0.0921,-0.1127,-0.1175,-0.1331,-0.1132,0,0,0,0,0]},{"header":{"parameterUnit":"m.s-1","parameterCategory":2,"la1":30.2991,"la2":30.254,"lo1":-89.0895,"lo2":-89.0444,"dy":0.0017,"dx":0.0017,"nx":28,"ny":28,"refTime":"2024-03-12T03:00:00:Z","depth":"2","parameterNumber":3,"parameterNumberName":"V-component_of_CURRENTS"},"data":[0,0,0,0,0,0,0,0,0,0,0,0,0,0,0,0,0,0,0,0,0,0,0,0,0,0,0,0,0,0,0,0,0,0,0,0,0,0,0,0,0,0,0,0,0,0,0,0,0,0,0,0,0,0,0,0,0,0,-0.0027,-0.0026,0,-0.0013,-0.0013,-0.0013,-0.0037,-0.0037,-0.0038,-0.0038,0.0022,0.0024,0.0026,0,0,0,0,0,0,0,0,0,0,0,0,0,-0.0056,-0.0056,-0.0027,-0.0026,-0.0026,-0.0013,-0.0013,-0.0013,-0.0036,-0.0037,-0.0038,-0.0038,0.0021,0.0024,0.0027,0,0,0,0,0,0,0,0,0,0,0,0,0,-0.0046,-0.0056,-0.0027,-0.0034,-0.0035,-0.0013,-0.0013,-0.0013,-0.0036,-0.0037,-0.0038,-0.0039,0.0021,0.0024,0.0027,0.0064,0,0,0.0037,0.0038,0,0,0,0,0,0,0,0,-0.0046,-0.0045,-0.0034,-0.0034,-0.0034,-0.0025,-0.0001,0.0016,-0.0036,-0.0038,-0.0038,-0.0039,0.0013,0.0017,0.0017,0.0067,0.0069,0.0037,0.0039,0.004,0.0041,0,0,0,0,0,0,0,-0.0047,-0.0045,-0.0024,-0.0033,-0.0033,-0.0032,-0.0032,0.0002,-0.0009,-0.0038,-0.0039,-0.0033,0.0013,0.0014,0.0018,0.007,0.0037,0.004,0.0042,0.0043,0.0154,0.0155,0,0,0,0,0,0,-0.0043,-0.0046,-0.0024,-0.0023,-0.0039,-0.0031,-0.0031,-0.0029,-0.0011,-0.0008,-0.0033,-0.0034,0.0009,0.0015,0.0021,0.0055,0.004,0.0043,0.0045,0.0153,0.0155,0.0156,0,0,0,0,0,0,-0.0044,-0.0042,-0.0025,-0.0032,-0.003,-0.0029,-0.0027,-0.0028,-0.0042,-0.0006,-0.0004,-0.0046,0.0008,0.0016,0.0046,0.0058,0.0045,0.0048,0.0152,0.0154,0.0155,0.0132,0,0,0,0,0,0,-0.0045,-0.0042,-0.0046,-0.0032,-0.0029,-0.0026,-0.0026,-0.0027,-0.0034,-0.0037,-0.0016,-0.0011,0.0008,0.0041,0.0049,0.0062,0.005,0.0151,0.0153,0.0155,0.0131,0.0132,0.0133,0,0,0,0,0,-0.0046,-0.0054,-0.0046,-0.0044,-0.0032,-0.0027,-0.0026,-0.003,-0.0034,-0.0044,-0.0021,-0.0013,0.0059,0.0044,0.0053,0.0068,0.015,0.0152,0.0155,0.0131,0.0132,0.0133,0,0,0,0,0,0,-0.0076,-0.0056,-0.0048,-0.0051,-0.0042,-0.003,-0.0039,-0.0036,-0.0027,-0.003,-0.0001,0.0006,0.0037,0.006,0.0042,0.0108,0.0107,0.0112,0.0086,0.0088,0.0089,0.0101,0.0053,0,0,0,0,0,-0.0079,-0.0081,-0.0059,-0.0064,-0.0059,-0.0049,-0.0048,-0.0048,-0.0034,-0.0033,-0.0011,0.0021,0.0058,0.0075,0.0106,0.0143,0.0173,0.0161,0.0161,0.0162,0.018,0.0232,0.0239,0.0163,0.0163,0.0163,0,0,-0.0093,-0.0081,-0.0084,-0.007,-0.0064,-0.0062,-0.0053,-0.0057,-0.0049,-0.0023,-0.0009,0.0022,0.0068,0.0104,0.0121,0.0122,0.0198,0.0165,0.0165,0.0183,0.0235,0.0242,0.0249,0.0165,0.0165,0.0165,0,0,-0.0129,-0.011,-0.0126,-0.0115,-0.0103,-0.0084,-0.0087,-0.0072,-0.0062,-0.0037,-0.001,0.0036,0.0073,0.0123,0.015,0.0182,0.0198,0.018,0.0198,0.0248,0.0254,0.026,0.0295,0.0304,0.0183,0.0183,0.0183,0,-0.0148,-0.0161,-0.0132,-0.014,-0.0134,-0.0096,-0.011,-0.0082,-0.0058,-0.0032,-0.0038,0.0059,0.0092,0.0167,0.0176,0.0186,0.0203,0.0184,0.0248,0.0255,0.0262,0.0296,0.0306,0.0183,0.0183,0.0183,0.0183,0,-0.0191,-0.0201,-0.0209,-0.0198,-0.0184,-0.019,-0.014,-0.012,-0.0094,-0.0053,0.0015,0.0074,0.0134,0.0154,0.0174,0.0245,0.0237,0.0237,0.0239,0.0267,0.0302,0.0313,0.0181,0.0182,0.0182,0.0182,0,0,-0.0239,-0.0243,-0.0245,-0.0259,-0.0217,-0.0216,-0.0176,-0.0127,-0.0104,-0.0037,-0.0002,0.0102,0.0146,0.0183,0.0224,0.028,0.0337,0.0273,0.0276,0.0298,0.0428,0.0363,0.0369,0.0332,0.0334,0.0336,0.0427,0,-0.0287,-0.0331,-0.0303,-0.0329,-0.0347,-0.0283,-0.0252,-0.019,-0.0129,-0.0079,0.0036,0.0087,0.0155,0.017,0.0247,0.0309,0.0368,0.0312,0.0407,0.0411,0.0342,0.0382,0.0363,0.0437,0.0439,0.044,0.0442,0,-0.0338,-0.0362,-0.0407,-0.0407,-0.0406,-0.0398,-0.034,-0.0309,-0.0192,-0.0145,-0.0034,0.0041,0.0169,0.0186,0.0367,0.0318,0.0379,0.0432,0.0436,0.0397,0.0368,0.0414,0.0458,0.0462,0.046,0.0459,0.0457,0,-0.0402,-0.0431,-0.0474,-0.0474,-0.0457,-0.0452,-0.0429,-0.0328,-0.0297,-0.0185,-0.0153,0.0019,0.0074,0.0212,0.0348,0.035,0.0504,0.0518,0.053,0.0526,0.0544,0.0536,0.0635,0.0635,0.0635,0.0634,0.0634,0,-0.0466,-0.0503,-0.0514,-0.0539,-0.0575,-0.0528,-0.0525,-0.0471,-0.0389,-0.0339,-0.0195,-0.013,0.0077,0.0196,0.0329,0.0464,0.0502,0.0551,0.0553,0.0532,0.0523,0.0573,0.0564,0.0638,0.0637,0.0636,0.0636,0,-0.0538,-0.0547,-0.0602,-0.0609,-0.0613,-0.0638,-0.0611,-0.0593,-0.0509,-0.0449,-0.0418,-0.0242,-0.008,0.011,0.0309,0.0413,0.0555,0.0581,0.0531,0.0526,0.0553,0.0543,0.0636,0.0635,0.0634,0.0633,0.0632,0,-0.0582,-0.0617,-0.0664,-0.0693,-0.0704,-0.0726,-0.0726,-0.0663,-0.0626,-0.0503,-0.0474,-0.0326,-0.0183,0.0075,0.0267,0.0479,0.0508,0.0551,0.0567,0.0565,0.0558,0.0549,0.054,0.059,0.0589,0.0588,0.0587,0,-0.0651,-0.0666,-0.0711,-0.0776,-0.0804,-0.0823,-0.0812,-0.0804,-0.0704,-0.0636,-0.0511,-0.0401,-0.0172,0.0059,0.0273,0.0395,0.0523,0.0535,0.0575,0.0564,0.0521,0.0513,0.0507,0.0579,0.058,0.058,0.0581,0.0581,-0.0689,-0.0744,-0.0791,-0.0853,-0.0882,-0.0883,-0.0882,-0.0833,-0.0776,-0.063,-0.054,-0.0339,-0.0159,0.0174,0.0312,0.0439,0.0462,0.0532,0.0536,0.0541,0.0491,0.0445,0.0481,0.0481,0.0481,0.0481,0.0482,0,-0.0731,-0.0785,-0.0852,-0.091,-0.0935,-0.0932,-0.0905,-0.0863,-0.0777,-0.0623,-0.0476,-0.0242,-0.0012,0.0169,0.0364,0.0469,0.0489,0.0479,0.0511,0.0517,0.0523,0.0473,0.0459,0.0459,0.0459,0.0459,0,0,-0.0752,-0.0833,-0.0879,-0.0935,-0.0957,-0.0952,-0.0927,-0.0848,-0.0725,-0.0555,-0.0386,-0.018,0.0032,0.0172,0.0294,0.0389,0.0422,0.0384,0.0392,0.042,0.0425,0.0542,0.0469,0,0,0,0,0]}],[{"header":{"parameterUnit":"m.s-1","parameterCategory":2,"la1":30.2991,"la2":30.254,"lo1":-89.0895,"lo2":-89.0444,"dy":0.0017,"dx":0.0017,"nx":28,"ny":28,"refTime":"2024-03-12T03:00:00:Z","depth":"4","parameterNumber":2,"parameterNumberName":"U-component_of_CURRENTS"},"data":[0,0,0,0,0,0,0,0,0,0,0,0,0,0,0,0,0,0,0,0,0,0,0,0,0,0,0,0,0,0,0,0,0,0,0,0,0,0,0,0,0,0,0,0,0,0,0,0,0,0,0,0,0,0,0,0,0,0,-0.0712,-0.0711,0,-0.0645,-0.0644,-0.0644,-0.0615,-0.0615,-0.0615,-0.0615,-0.0685,-0.0686,-0.0688,0,0,0,0,0,0,0,0,0,0,0,0,0,-0.0847,-0.0845,-0.0712,-0.0711,-0.071,-0.0645,-0.0644,-0.0643,-0.0615,-0.0615,-0.0615,-0.0615,-0.0684,-0.0686,-0.0688,0,0,0,0,0,0,0,0,0,0,0,0,0,-0.0787,-0.0844,-0.0712,-0.0687,-0.0683,-0.0645,-0.0644,-0.0643,-0.0615,-0.0615,-0.0615,-0.0615,-0.0683,-0.0686,-0.0689,-0.0708,0,0,-0.0697,-0.0699,0,0,0,0,0,0,0,0,-0.079,-0.0782,-0.0691,-0.0688,-0.0685,-0.0637,-0.0717,-0.0671,-0.0615,-0.0643,-0.0615,-0.0615,-0.068,-0.0683,-0.0671,-0.0711,-0.0714,-0.0698,-0.0699,-0.0701,-0.0701,0,0,0,0,0,0,0,-0.0794,-0.0785,-0.0687,-0.069,-0.0686,-0.0689,-0.068,-0.0708,-0.0667,-0.0641,-0.0638,-0.0628,-0.0679,-0.0669,-0.0673,-0.0715,-0.0698,-0.07,-0.0702,-0.0703,-0.0796,-0.0796,0,0,0,0,0,0,-0.0797,-0.0789,-0.0689,-0.0685,-0.0736,-0.0687,-0.0677,-0.0654,-0.0664,-0.0663,-0.0628,-0.0626,-0.0664,-0.067,-0.0676,-0.0746,-0.0701,-0.0703,-0.0705,-0.0795,-0.0796,-0.0797,0,0,0,0,0,0,-0.08,-0.0788,-0.0692,-0.0735,-0.0723,-0.0684,-0.0658,-0.0652,-0.0649,-0.0652,-0.0654,-0.0631,-0.0664,-0.0672,-0.0705,-0.0747,-0.0705,-0.0707,-0.0794,-0.0795,-0.0796,-0.0858,0,0,0,0,0,0,-0.0804,-0.0789,-0.0796,-0.0734,-0.072,-0.0678,-0.0658,-0.0651,-0.0641,-0.0639,-0.0656,-0.0661,-0.0664,-0.0701,-0.0708,-0.075,-0.0709,-0.0793,-0.0795,-0.0796,-0.0855,-0.0861,-0.0866,0,0,0,0,0,-0.0809,-0.0815,-0.0796,-0.0785,-0.0722,-0.0678,-0.0671,-0.0645,-0.0641,-0.0642,-0.0652,-0.0661,-0.0715,-0.0703,-0.0712,-0.0756,-0.0792,-0.0794,-0.0796,-0.0852,-0.086,-0.0866,0,0,0,0,0,0,-0.0879,-0.081,-0.0789,-0.0774,-0.0732,-0.0672,-0.0681,-0.0654,-0.0659,-0.0671,-0.0671,-0.0678,-0.0725,-0.0725,-0.0712,-0.0783,-0.0755,-0.0759,-0.0796,-0.0803,-0.0808,-0.0804,-0.0712,0,0,0,0,0,-0.0895,-0.088,-0.0811,-0.0802,-0.0785,-0.0735,-0.0722,-0.0697,-0.068,-0.0681,-0.0685,-0.0703,-0.0736,-0.0755,-0.0776,-0.0817,-0.0814,-0.0848,-0.0854,-0.0858,-0.0859,-0.0887,-0.0895,-0.0802,-0.0802,-0.0802,0,0,-0.0919,-0.0881,-0.0873,-0.0817,-0.0788,-0.0777,-0.0729,-0.071,-0.0712,-0.0694,-0.0718,-0.0728,-0.075,-0.0794,-0.0815,-0.0802,-0.0884,-0.0861,-0.0865,-0.0862,-0.0889,-0.0898,-0.0907,-0.0803,-0.0803,-0.0803,0,0,-0.0959,-0.0926,-0.0928,-0.0902,-0.0858,-0.0823,-0.0819,-0.0763,-0.0755,-0.0769,-0.0764,-0.0777,-0.0826,-0.0831,-0.085,-0.0895,-0.0913,-0.0923,-0.0954,-0.0982,-0.099,-0.0997,-0.1008,-0.1015,-0.0926,-0.0926,-0.0926,0,-0.0992,-0.0973,-0.0925,-0.0925,-0.0915,-0.0848,-0.0853,-0.0835,-0.0799,-0.0801,-0.0792,-0.0837,-0.084,-0.0896,-0.0906,-0.0909,-0.0933,-0.0931,-0.0991,-0.0998,-0.1004,-0.1013,-0.102,-0.0929,-0.0928,-0.0928,-0.0928,0,-0.1023,-0.102,-0.1022,-0.0997,-0.099,-0.0975,-0.0939,-0.093,-0.0914,-0.0891,-0.0926,-0.0917,-0.0938,-0.0949,-0.0947,-0.1001,-0.1006,-0.0997,-0.0976,-0.1017,-0.1024,-0.103,-0.0933,-0.0932,-0.0931,-0.093,0,0,-0.1034,-0.1041,-0.104,-0.1043,-0.1021,-0.1003,-0.1029,-0.1009,-0.1025,-0.1003,-0.1031,-0.1049,-0.1026,-0.1041,-0.1036,-0.1052,-0.11,-0.1054,-0.1054,-0.1068,-0.1174,-0.1091,-0.1089,-0.1126,-0.1128,-0.1129,-0.1162,0,-0.1058,-0.1076,-0.1084,-0.1105,-0.1097,-0.1083,-0.111,-0.11,-0.1094,-0.1105,-0.1087,-0.112,-0.1072,-0.1097,-0.11,-0.1109,-0.1122,-0.1092,-0.1128,-0.1128,-0.1053,-0.1095,-0.1134,-0.1167,-0.1168,-0.1169,-0.117,0,-0.1057,-0.107,-0.1099,-0.1133,-0.1136,-0.1159,-0.1179,-0.1198,-0.1209,-0.1219,-0.1231,-0.122,-0.1231,-0.119,-0.1205,-0.1204,-0.1191,-0.1185,-0.1186,-0.1089,-0.1056,-0.1116,-0.1182,-0.1181,-0.118,-0.118,-0.1179,0,-0.102,-0.1069,-0.1091,-0.1098,-0.1136,-0.1169,-0.1199,-0.1226,-0.1241,-0.1295,-0.1316,-0.1328,-0.1337,-0.1334,-0.1283,-0.1275,-0.1301,-0.1281,-0.1188,-0.1182,-0.1221,-0.1213,-0.1295,-0.1295,-0.1295,-0.1295,-0.1295,0,-0.0983,-0.0998,-0.1082,-0.1077,-0.112,-0.1175,-0.1221,-0.1254,-0.1314,-0.1329,-0.1368,-0.1374,-0.1381,-0.1374,-0.1334,-0.1273,-0.1336,-0.1198,-0.1189,-0.1244,-0.1239,-0.1225,-0.1217,-0.1296,-0.1296,-0.1296,-0.1296,0,-0.089,-0.0944,-0.0968,-0.1053,-0.1086,-0.1112,-0.121,-0.1234,-0.1325,-0.1354,-0.1378,-0.1423,-0.1423,-0.1405,-0.1401,-0.1325,-0.1288,-0.1251,-0.1311,-0.1304,-0.1141,-0.1135,-0.1162,-0.116,-0.1158,-0.1156,-0.1154,0,-0.0831,-0.0837,-0.0931,-0.0951,-0.0986,-0.1053,-0.1087,-0.1203,-0.1234,-0.1347,-0.1343,-0.1396,-0.1397,-0.1321,-0.1327,-0.1275,-0.1239,-0.1227,-0.1174,-0.1141,-0.113,-0.1128,-0.1125,-0.1151,-0.115,-0.115,-0.1149,0,-0.0723,-0.0769,-0.0795,-0.0842,-0.0887,-0.0937,-0.1014,-0.1039,-0.1163,-0.125,-0.1268,-0.1269,-0.1271,-0.1251,-0.1232,-0.1181,-0.1244,-0.1203,-0.1207,-0.1157,-0.1127,-0.1118,-0.1118,-0.1141,-0.1143,-0.1143,-0.1144,0,-0.0651,-0.0646,-0.0699,-0.0724,-0.0777,-0.0815,-0.0877,-0.0934,-0.0992,-0.1135,-0.1127,-0.1184,-0.1246,-0.1202,-0.1172,-0.1137,-0.1103,-0.1053,-0.1063,-0.1072,-0.1024,-0.0972,-0.0937,0,0,0,0,0,-0.058,-0.0567,-0.0583,-0.062,-0.0667,-0.0706,-0.0816,-0.0891,-0.1018,-0.0988,-0.1064,-0.1055,-0.1047,-0.108,-0.1017,-0.1123,-0.1105,-0.1047,-0.1053,-0.1099,-0.1108,-0.1058,0,0,0,0,0,0,-0.0535,-0.0543,-0.0545,-0.0525,-0.0532,-0.0589,-0.066,-0.0757,-0.0765,-0.0887,-0.0882,-0.0965,-0.0965,-0.104,-0.0978,-0.0987,-0.0966,-0.1084,-0.1081,-0.1094,-0.1102,-0.1109,-0.1061,0,0,0,0,0]},{"header":{"parameterUnit":"m.s-1","parameterCategory":2,"la1":30.2991,"la2":30.254,"lo1":-89.0895,"lo2":-89.0444,"dy":0.0017,"dx":0.0017,"nx":28,"ny":28,"refTime":"2024-03-12T03:00:00:Z","depth":"4","parameterNumber":3,"parameterNumberName":"V-component_of_CURRENTS"},"data":[0,0,0,0,0,0,0,0,0,0,0,0,0,0,0,0,0,0,0,0,0,0,0,0,0,0,0,0,0,0,0,0,0,0,0,0,0,0,0,0,0,0,0,0,0,0,0,0,0,0,0,0,0,0,0,0,0,0,-0.0061,-0.0061,0,-0.0089,-0.009,-0.009,-0.0091,-0.0091,-0.009,-0.009,-0.0079,-0.008,-0.008,0,0,0,0,0,0,0,0,0,0,0,0,0,-0.0058,-0.0058,-0.0061,-0.0061,-0.0061,-0.0089,-0.009,-0.009,-0.0092,-0.0091,-0.009,-0.009,-0.0079,-0.008,-0.008,0,0,0,0,0,0,0,0,0,0,0,0,0,-0.0072,-0.0058,-0.0061,-0.0063,-0.0064,-0.0089,-0.009,-0.009,-0.0092,-0.0091,-0.009,-0.0089,-0.0079,-0.0079,-0.008,-0.0098,0,0,-0.0081,-0.0081,0,0,0,0,0,0,0,0,-0.0071,-0.0072,-0.0063,-0.0063,-0.0064,-0.0084,-0.0085,-0.009,-0.0092,-0.0083,-0.009,-0.0089,-0.0076,-0.0077,-0.0088,-0.0098,-0.0097,-0.0081,-0.0081,-0.0081,-0.0081,0,0,0,0,0,0,0,-0.007,-0.0071,-0.0074,-0.0063,-0.0063,-0.008,-0.0081,-0.0086,-0.0085,-0.0084,-0.0084,-0.0084,-0.0076,-0.0088,-0.0087,-0.0097,-0.0081,-0.0081,-0.0081,-0.0082,-0.0118,-0.0119,0,0,0,0,0,0,-0.006,-0.007,-0.0073,-0.0075,-0.0063,-0.0081,-0.0082,-0.008,-0.0086,-0.0086,-0.0084,-0.0083,-0.0087,-0.0087,-0.0087,-0.0096,-0.0081,-0.0082,-0.0082,-0.0118,-0.0119,-0.0119,0,0,0,0,0,0,-0.006,-0.006,-0.0072,-0.0072,-0.0074,-0.0081,-0.0079,-0.0081,-0.0089,-0.0086,-0.0085,-0.009,-0.0087,-0.0086,-0.0096,-0.0096,-0.0082,-0.0082,-0.0117,-0.0118,-0.0119,-0.0122,0,0,0,0,0,0,-0.006,-0.006,-0.0062,-0.0071,-0.0073,-0.009,-0.008,-0.0082,-0.0089,-0.0089,-0.0091,-0.0089,-0.0086,-0.0095,-0.0096,-0.0096,-0.0082,-0.0116,-0.0117,-0.0119,-0.0121,-0.0123,-0.0125,0,0,0,0,0,-0.006,-0.0066,-0.0062,-0.0063,-0.0074,-0.009,-0.0094,-0.0098,-0.009,-0.0101,-0.0102,-0.0089,-0.0105,-0.0097,-0.0097,-0.0097,-0.0115,-0.0117,-0.0118,-0.012,-0.0122,-0.0124,0,0,0,0,0,0,-0.0069,-0.0066,-0.0063,-0.0068,-0.0078,-0.0089,-0.01,-0.01,-0.0111,-0.0107,-0.0101,-0.0101,-0.0107,-0.0109,-0.0099,-0.0114,-0.0107,-0.0109,-0.0108,-0.011,-0.0112,-0.0113,-0.0083,0,0,0,0,0,-0.0071,-0.0075,-0.0075,-0.0084,-0.0085,-0.0093,-0.01,-0.0103,-0.0109,-0.0114,-0.0114,-0.0115,-0.0118,-0.0118,-0.0124,-0.0134,-0.0113,-0.0135,-0.0137,-0.0139,-0.0142,-0.011,-0.0109,-0.0125,-0.0125,-0.0125,0,0,-0.0081,-0.0078,-0.0083,-0.0087,-0.0094,-0.0108,-0.0096,-0.0109,-0.0124,-0.011,-0.0129,-0.0123,-0.0123,-0.0133,-0.0136,-0.0131,-0.0123,-0.0141,-0.0142,-0.0144,-0.0112,-0.011,-0.0108,-0.0126,-0.0126,-0.0126,0,0,-0.0108,-0.0095,-0.0111,-0.0115,-0.0121,-0.0123,-0.0125,-0.0134,-0.0139,-0.0155,-0.0145,-0.0145,-0.0153,-0.0153,-0.0153,-0.0174,-0.0135,-0.0168,-0.0176,-0.0145,-0.0143,-0.0141,-0.0104,-0.0098,-0.0168,-0.0168,-0.0168,0,-0.0121,-0.0137,-0.0121,-0.0135,-0.0144,-0.0129,-0.0152,-0.0155,-0.0168,-0.0171,-0.0162,-0.0164,-0.0166,-0.0169,-0.0174,-0.0178,-0.0144,-0.0163,-0.0145,-0.0143,-0.0141,-0.0103,-0.0097,-0.0168,-0.0168,-0.0168,-0.0168,0,-0.016,-0.0172,-0.0181,-0.019,-0.0196,-0.0213,-0.0207,-0.0211,-0.0206,-0.0205,-0.0204,-0.0199,-0.0198,-0.0195,-0.0191,-0.0176,-0.0151,-0.0148,-0.0133,-0.0139,-0.0099,-0.0093,-0.0169,-0.0169,-0.0169,-0.0169,0,0,-0.0192,-0.0208,-0.0212,-0.023,-0.0226,-0.024,-0.0247,-0.0255,-0.0257,-0.0249,-0.0251,-0.0249,-0.0226,-0.0226,-0.0209,-0.0183,-0.0139,-0.0154,-0.0152,-0.0107,-0.005,-0.004,-0.0032,-0.0116,-0.0115,-0.0115,-0.0025,0,-0.0234,-0.0278,-0.0268,-0.0311,-0.0333,-0.0311,-0.0318,-0.0315,-0.0301,-0.0295,-0.0268,-0.0263,-0.0242,-0.0231,-0.0201,-0.0156,-0.0123,-0.0163,-0.0062,-0.0059,-0.0041,-0.0025,-0.0112,-0.002,-0.0019,-0.0018,-0.0017,0,-0.0278,-0.0302,-0.0354,-0.0374,-0.038,-0.0396,-0.0395,-0.0401,-0.0369,-0.0352,-0.032,-0.0288,-0.0252,-0.0234,-0.0144,-0.016,-0.0109,-0.0069,-0.0064,-0.0051,-0.0038,-0.0018,-0.0005,-0.0006,-0.0007,-0.0008,-0.0008,0,-0.0323,-0.0361,-0.0409,-0.0417,-0.0431,-0.0445,-0.0449,-0.0424,-0.0425,-0.0384,-0.0364,-0.0306,-0.0277,-0.02,-0.0116,-0.0119,-0.0006,-0.0007,0.0052,0.0053,0.002,0.0017,0.0055,0.0055,0.0055,0.0055,0.0054,0,-0.0369,-0.0407,-0.0437,-0.0461,-0.0508,-0.0494,-0.0521,-0.0504,-0.0474,-0.046,-0.0397,-0.0358,-0.0263,-0.0185,-0.0109,-0.0001,0.0001,0.0057,0.0078,0.0017,0.0012,0.0026,0.0021,0.0058,0.0057,0.0057,0.0056,0,-0.0405,-0.0431,-0.0484,-0.0516,-0.0534,-0.0562,-0.0576,-0.0579,-0.0539,-0.0513,-0.0496,-0.0395,-0.0274,-0.0176,-0.0048,0.0002,0.01,0.0133,0.0071,0.0086,0.014,0.0134,0.0212,0.0213,0.0214,0.0215,0.0216,0,-0.0427,-0.0459,-0.0525,-0.0559,-0.0579,-0.0619,-0.0637,-0.062,-0.0606,-0.0523,-0.0503,-0.0388,-0.0306,-0.0107,-0.0013,0.0138,0.0149,0.0191,0.0156,0.0144,0.0156,0.0149,0.0142,0.0217,0.0218,0.0218,0.0218,0,-0.0453,-0.0478,-0.0518,-0.0591,-0.0635,-0.0674,-0.0691,-0.0685,-0.0635,-0.061,-0.0478,-0.0364,-0.0228,-0.0085,0.003,0.0132,0.0159,0.0201,0.0199,0.0167,0.0151,0.0161,0.0153,0.0221,0.0221,0.022,0.022,0,-0.0459,-0.0493,-0.0547,-0.0607,-0.0667,-0.0692,-0.0708,-0.0667,-0.0648,-0.0542,-0.0498,-0.0339,-0.0251,-0.0087,0.0021,0.0123,0.0141,0.0152,0.0153,0.015,0.0097,0.0066,0.0135,0,0,0,0,0,-0.0455,-0.0493,-0.0554,-0.0618,-0.0673,-0.0704,-0.0719,-0.0714,-0.0672,-0.0578,-0.0529,-0.0389,-0.0192,-0.0108,-0.0,0.0014,0.0134,0.0138,0.014,0.0239,0.0235,0.0183,0,0,0,0,0,0,-0.0455,-0.0509,-0.0549,-0.0609,-0.0648,-0.0699,-0.0708,-0.0685,-0.0619,-0.0558,-0.0447,-0.0379,-0.019,-0.0246,0.0001,0.003,0.0041,0.0231,0.0233,0.0241,0.0238,0.0235,0.018,0,0,0,0,0]}]]